EW5254 Weather Reports


Display with metric or nautical units.
time (UTC)temp
F
wind
direction
speed
MPH
gust
MPH
rain 1hr
in
rain 24hr
in
rain mn
in
humidity
%
barometer
mb
20260502231546 63 122 5.0 10.0 0.00 0.00 0.00 44 1012.6
20260502230047 64 86 6.0 15.0 0.00 0.00 0.00 42 1012.3
20260502224544 64 140 6.0 10.0 0.00 0.00 0.00 42 1012.4
20260502223052 62 132 4.0 9.0 0.00 0.00 0.00 44 1012.6
20260502221545 62 113 4.0 14.0 0.00 0.00 0.00 43 1012.8
20260502220042 62 55 4.0 14.0 0.00 0.00 0.00 45 1013.0
20260502214604 64 111 5.0 10.0 0.00 0.01 0.00 43 1013.3
20260502213056 63 82 7.0 13.0 0.00 0.01 0.00 43 1013.6
20260502211540 63 132 8.0 12.0 0.00 0.01 0.00 44 1013.9
20260502210040 63 193 4.0 11.0 0.00 0.01 0.00 43 1014.3
20260502204540 62 110 6.0 12.0 0.00 0.01 0.00 44 1014.6
20260502203103 63 121 8.0 13.0 0.00 0.01 0.00 44 1014.7
20260502201541 61 85 6.0 13.0 0.00 0.01 0.00 47 1014.8
20260502200043 62 91 4.0 13.0 0.00 0.01 0.00 44 1015.0
20260502194533 62 134 6.0 15.0 0.00 0.01 0.00 45 1015.0
20260502193031 61 123 7.0 12.0 0.00 0.01 0.00 46 1015.1
20260502191529 61 98 10.0 15.0 0.00 0.01 0.00 47 1015.1
20260502190028 60 84 8.0 13.0 0.00 0.01 0.00 46 1015.3
20260502184528 60 68 10.0 14.0 0.00 0.06 0.00 45 1015.5
20260502183025 59 98 6.0 14.0 0.00 0.06 0.00 47 1015.6
20260502181523 58 90 8.0 16.0 0.00 0.06 0.00 47 1015.9
20260502163032 54 54 4.0 12.0 0.00 0.06 0.00 56 1016.6
20260502161519 53 90 8.0 13.0 0.00 0.06 0.00 56 1016.6
20260502151559 51 106 3.0 10.0 0.00 0.06 0.00 57 1016.4
20260502123032 41 58 5.0 10.0 0.00 0.38 0.00 90 1014.3
20260502121526 41 55 5.0 9.0 0.00 0.38 0.00 90 1014.3
20260502114518 41 60 6.0 11.0 0.00 0.42 0.00 92 1013.7
20260502113015 41 67 4.0 11.0 0.00 0.42 0.00 93 1013.6
20260502111512 42 55 5.0 11.0 0.00 0.42 0.00 94 1013.7
20260502110012 42 51 8.0 14.0 0.00 0.42 0.00 94 1013.4
20260502104515 42 51 6.0 11.0 0.00 0.42 0.00 94 1013.5
20260502103005 43 71 5.0 11.0 0.00 0.42 0.00 93 1013.3
20260502101503 43 49 6.0 11.0 0.00 0.42 0.00 93 1013.1
20260502080105 45 77 5.0 14.0 0.00 0.42 0.00 96 1012.5
20260502070100 44 36 8.0 17.0 0.00 0.42 0.00 96 1012.4
20260502064549 45 56 10.0 17.0 0.00 0.42 0.00 96 1012.2
20260502063040 45 65 11.0 17.0 0.00 0.42 0.00 96 1012.1
20260502061538 45 51 8.0 17.0 0.00 0.42 0.00 96 1012.0
20260502060037 45 40 10.0 20.0 0.00 0.42 0.00 96 1011.8
20260502054536 45 49 11.0 23.0 0.00 0.42 0.00 96 1011.5
20260502053032 45 50 9.0 23.0 0.00 0.42 0.00 96 1011.5
20260502051535 45 45 9.0 21.0 0.00 0.42 0.00 96 1011.2
20260502050025 45 60 11.0 26.0 0.00 0.42 0.00 95 1011.0
20260502044523 46 55 13.0 22.0 0.00 0.42 0.42 95 1011.0
20260502043018 47 44 10.0 20.0 0.00 0.42 0.42 95 1010.7
20260502041516 47 49 12.0 19.0 0.00 0.42 0.42 95 1010.6
20260502040012 48 67 9.0 17.0 0.00 0.42 0.42 95 1010.2
20260502034509 48 50 11.0 22.0 0.00 0.42 0.42 95 1009.9
20260502033006 48 55 9.0 18.0 0.00 0.42 0.42 95 1009.6
20260502031503 49 62 10.0 20.0 0.00 0.42 0.42 95 1009.2
20260502024559 50 52 10.0 19.0 0.00 0.42 0.42 95 1008.6
20260502023055 50 37 11.0 21.0 0.00 0.42 0.42 94 1008.1
20260502021552 50 33 11.0 21.0 0.00 0.42 0.42 94 1007.7
20260502020050 51 69 11.0 20.0 0.00 0.42 0.42 94 1007.4
20260502014547 51 49 10.0 20.0 0.00 0.42 0.42 93 1007.1
20260502013045 52 80 9.0 20.0 0.00 0.42 0.42 93 1006.8
20260502011543 53 55 9.0 18.0 0.00 0.42 0.42 92 1006.5
20260502010040 53 62 11.0 19.0 0.00 0.42 0.42 89 1006.1
20260502004538 54 36 8.0 22.0 0.00 0.42 0.42 87 1005.9
20260502003036 55 78 7.0 15.0 0.00 0.42 0.42 84 1005.6
20260502001544 55 47 10.0 19.0 0.00 0.42 0.42 84 1005.2
20260502000032 56 69 8.0 15.0 0.00 0.42 0.42 82 1005.0
20260501234535 58 76 11.0 17.0 0.00 0.42 0.42 79 1004.6
20260501233028 60 81 10.0 16.0 0.00 0.42 0.42 75 1004.4